CCA901 ZBAA-ZKPY

Flight info

Callsign CCA901
Flight time 1h 30m
Altitude 31100
Route K0850S1070 DOTRA5Y DOTRA B334 KAKAT W31 CHG A575 BIDIB A345 GASAN GAS11A
Aircraft B738/M-SDE2E3FGHIRWXY/LB1

Departure

Time 2026-04-24 12:46
Airport Beijing Capital International Airport (ZBAA)

Arrival

Time 2026-04-24 14:17
Airport Pyongyang Sunan International Airport (ZKPY)
Time Latitude Longitude Altitude Speed Heading
2026-04-24 12:19 40.07211 116.60507 124 ft 0 kts 83°
2026-04-24 12:34 40.07209 116.60490 124 ft 2 kts 83°
2026-04-24 12:34 40.07207 116.60471 124 ft 2 kts 83°
2026-04-24 12:34 40.07206 116.60451 124 ft 2 kts 83°
2026-04-24 12:34 40.07204 116.60432 124 ft 2 kts 83°
2026-04-24 12:35 40.07202 116.60413 124 ft 2 kts 88°
2026-04-24 12:35 40.07205 116.60394 124 ft 2 kts 116°
2026-04-24 12:35 40.07214 116.60377 124 ft 2 kts 140°
2026-04-24 12:35 40.07227 116.60367 124 ft 2 kts 163°
2026-04-24 12:36 40.07234 116.60365 124 ft 1 kts 176°
2026-04-24 12:36 40.07239 116.60365 124 ft 0 kts 174°
2026-04-24 12:37 40.07238 116.60365 124 ft 0 kts 174°
2026-04-24 12:37 40.07224 116.60367 124 ft 2 kts 174°
2026-04-24 12:38 40.07194 116.60371 124 ft 0 kts 174°
2026-04-24 12:38 40.07159 116.60377 124 ft 10 kts 171°
2026-04-24 12:38 40.07078 116.60392 124 ft 15 kts 172°
2026-04-24 12:39 40.06867 116.60273 124 ft 0 kts 261°
2026-04-24 12:40 40.06865 116.60260 124 ft 5 kts 261°
2026-04-24 12:40 40.06856 116.60155 124 ft 19 kts 265°
2026-04-24 12:40 40.06770 116.60055 124 ft 19 kts 174°
2026-04-24 12:40 40.06614 116.60082 124 ft 24 kts 172°
2026-04-24 12:41 40.06438 116.60109 124 ft 27 kts 173°
2026-04-24 12:41 40.06240 116.60139 124 ft 29 kts 173°
2026-04-24 12:41 40.06045 116.60169 124 ft 27 kts 173°
2026-04-24 12:41 40.05845 116.60201 124 ft 31 kts 173°
2026-04-24 12:42 40.05631 116.60234 124 ft 26 kts 174°
2026-04-24 12:42 40.05535 116.60168 124 ft 6 kts 262°
2026-04-24 12:42 40.05535 116.60165 124 ft 0 kts 263°
2026-04-24 12:45 40.05534 116.60127 124 ft 10 kts 274°
2026-04-24 12:45 40.05597 116.60008 124 ft 19 kts 339°
2026-04-24 12:45 40.05741 116.59978 124 ft 34 kts 353°
2026-04-24 12:46 40.06296 116.59893 124 ft 123 kts 353°
2026-04-24 12:46 40.07396 116.59721 293 ft 180 kts 353°
2026-04-24 12:46 40.08628 116.59534 1267 ft 180 kts 355°
2026-04-24 12:46 40.09850 116.59370 2040 ft 185 kts 353°
2026-04-24 12:47 40.11163 116.59112 2578 ft 197 kts 350°
2026-04-24 12:47 40.12574 116.58849 3096 ft 214 kts 351°
2026-04-24 12:47 40.14106 116.58603 3622 ft 232 kts 352°
2026-04-24 12:47 40.15768 116.58351 4161 ft 252 kts 352°
2026-04-24 12:48 40.17574 116.58078 4675 ft 271 kts 351°
2026-04-24 12:48 40.19492 116.57787 5163 ft 279 kts 351°
2026-04-24 12:48 40.21433 116.57493 5658 ft 281 kts 351°
2026-04-24 12:48 40.23371 116.57200 6139 ft 283 kts 350°
2026-04-24 12:49 40.25334 116.56899 6626 ft 285 kts 350°
2026-04-24 12:49 40.27299 116.56580 7108 ft 285 kts 349°
2026-04-24 12:49 40.29253 116.56248 7597 ft 287 kts 349°
2026-04-24 12:49 40.31249 116.55904 8088 ft 289 kts 349°
2026-04-24 12:50 40.33296 116.55552 8604 ft 305 kts 349°
2026-04-24 12:50 40.35412 116.55190 9100 ft 313 kts 350°
2026-04-24 12:50 40.37588 116.54823 9603 ft 317 kts 350°
2026-04-24 12:50 40.39785 116.54455 10096 ft 320 kts 350°
2026-04-24 12:51 40.42045 116.54116 10592 ft 336 kts 354°
2026-04-24 12:51 40.44444 116.54068 11084 ft 352 kts 359°
2026-04-24 12:51 40.46947 116.54221 11583 ft 366 kts
2026-04-24 12:51 40.49521 116.54455 12070 ft 376 kts
2026-04-24 12:52 40.52088 116.55095 12561 ft 382 kts 15°
2026-04-24 12:52 40.54552 116.56499 13068 ft 388 kts 28°
2026-04-24 12:52 40.56789 116.58528 13581 ft 393 kts 36°
2026-04-24 12:52 40.58905 116.60819 14095 ft 397 kts 38°
2026-04-24 12:53 40.60972 116.63206 14589 ft 400 kts 39°
2026-04-24 12:53 40.63049 116.65643 15095 ft 402 kts 40°
2026-04-24 12:53 40.65153 116.68098 15611 ft 404 kts 39°
2026-04-24 12:53 40.67267 116.70538 16119 ft 407 kts 39°
2026-04-24 12:54 40.69436 116.73014 16634 ft 416 kts 39°
2026-04-24 12:54 40.71630 116.75478 17138 ft 422 kts 37°
2026-04-24 12:54 40.74007 116.77786 17648 ft 422 kts 30°
2026-04-24 12:54 40.76627 116.79470 18177 ft 421 kts 17°
2026-04-24 12:55 40.79462 116.80325 18694 ft 421 kts
2026-04-24 12:55 40.82395 116.80669 19200 ft 420 kts
2026-04-24 12:55 40.85257 116.80853 19714 ft 414 kts
2026-04-24 12:55 40.88163 116.80981 20246 ft 415 kts 360°
2026-04-24 12:56 40.91045 116.81090 20759 ft 420 kts 359°
2026-04-24 12:56 40.93995 116.81203 21287 ft 425 kts 359°
2026-04-24 12:56 40.96961 116.81329 21816 ft 428 kts 359°
2026-04-24 12:56 40.99915 116.81464 22338 ft 430 kts 359°
2026-04-24 12:57 41.02911 116.81609 22879 ft 434 kts 359°
2026-04-24 12:57 41.05927 116.81758 23414 ft 437 kts 360°
2026-04-24 12:57 41.08969 116.81914 23946 ft 440 kts 359°
2026-04-24 12:57 41.12069 116.82075 24491 ft 443 kts 359°
2026-04-24 12:58 41.15140 116.82235 25026 ft 447 kts 359°
2026-04-24 12:58 41.18276 116.82396 25567 ft 450 kts 359°
2026-04-24 12:58 41.21392 116.82555 26090 ft 453 kts 359°
2026-04-24 12:58 41.24566 116.82724 26620 ft 455 kts 359°
2026-04-24 12:59 41.27736 116.82895 27150 ft 456 kts 359°
2026-04-24 12:59 41.30876 116.83064 27675 ft 456 kts 359°
2026-04-24 12:59 41.34055 116.83234 28210 ft 454 kts 358°
2026-04-24 12:59 41.37188 116.83407 28736 ft 452 kts 358°
2026-04-24 13:00 41.40363 116.83581 29099 ft 455 kts 358°
2026-04-24 13:00 41.46671 116.83920 29149 ft 452 kts 358°
2026-04-24 13:01 41.52942 116.84262 29154 ft 447 kts 358°
2026-04-24 13:01 41.59208 116.84676 29155 ft 451 kts
2026-04-24 13:02 41.65339 116.86529 29167 ft 461 kts 18°
2026-04-24 13:02 41.70864 116.90992 29171 ft 471 kts 37°
2026-04-24 13:03 41.75112 116.97700 29176 ft 479 kts 56°
2026-04-24 13:03 41.78133 117.05705 29173 ft 484 kts 63°
2026-04-24 13:04 41.80831 117.13957 29173 ft 482 kts 65°
2026-04-24 13:04 41.82822 117.20124 29171 ft 483 kts 64°
2026-04-24 13:05 41.84842 117.26248 29155 ft 481 kts 63°
2026-04-24 13:05 41.87611 117.34435 29150 ft 482 kts 63°
2026-04-24 13:06 41.90389 117.42587 29152 ft 482 kts 62°
2026-04-24 13:06 41.93182 117.50796 29152 ft 482 kts 63°
2026-04-24 13:07 41.95962 117.58944 29158 ft 482 kts 62°
2026-04-24 13:07 41.98759 117.67145 29163 ft 480 kts 63°
2026-04-24 13:08 42.01525 117.75288 29167 ft 482 kts 63°
2026-04-24 13:08 42.04299 117.83499 29159 ft 481 kts 64°
2026-04-24 13:09 42.08440 117.95856 29165 ft 483 kts 63°
2026-04-24 13:09 42.11198 118.04067 29157 ft 481 kts 63°
2026-04-24 13:10 42.13972 118.12324 29145 ft 484 kts 63°
2026-04-24 13:10 42.16676 118.20616 29126 ft 485 kts 66°
2026-04-24 13:11 42.18429 118.29383 29120 ft 488 kts 81°
2026-04-24 13:11 42.18852 118.38562 29111 ft 490 kts 88°
2026-04-24 13:12 42.18871 118.47701 28528 ft 482 kts 89°
2026-04-24 13:12 42.18872 118.52140 28936 ft 463 kts 90°
2026-04-24 13:12 42.18874 118.56414 29152 ft 458 kts 89°
2026-04-24 13:13 42.18901 118.65191 29199 ft 476 kts 90°
2026-04-24 13:13 42.18940 118.74149 29199 ft 475 kts 91°
2026-04-24 13:14 42.17987 118.82923 29200 ft 473 kts 107°
2026-04-24 13:14 42.15386 118.91067 29200 ft 474 kts 117°
2026-04-24 13:15 42.12494 118.98212 29200 ft 474 kts 119°
2026-04-24 13:15 42.11417 119.00755 29755 ft 483 kts 123°
2026-04-24 13:15 42.09652 119.04737 28634 ft 497 kts 120°
2026-04-24 13:16 42.07957 119.08722 28972 ft 482 kts 119°
2026-04-24 13:16 42.06332 119.12672 29159 ft 479 kts 118°
2026-04-24 13:16 42.03178 119.20467 29198 ft 474 kts 118°
2026-04-24 13:17 42.00003 119.28344 29200 ft 473 kts 118°
2026-04-24 13:17 41.96864 119.36110 29200 ft 474 kts 118°
2026-04-24 13:18 41.93720 119.43861 29200 ft 474 kts 118°
2026-04-24 13:18 41.90605 119.51656 29200 ft 474 kts 117°
2026-04-24 13:19 41.87524 119.59431 29200 ft 474 kts 117°
2026-04-24 13:19 41.84419 119.67252 29200 ft 474 kts 118°
2026-04-24 13:20 41.81324 119.75011 29200 ft 474 kts 118°
2026-04-24 13:20 41.78197 119.82821 29200 ft 474 kts 118°
2026-04-24 13:21 41.75090 119.90552 29200 ft 474 kts 118°
2026-04-24 13:21 41.71962 119.98312 29200 ft 474 kts 118°
2026-04-24 13:22 41.68818 120.06091 29200 ft 474 kts 118°
2026-04-24 13:22 41.65679 120.13837 29200 ft 474 kts 118°
2026-04-24 13:23 41.62546 120.21546 29200 ft 474 kts 118°
2026-04-24 13:23 41.59409 120.29248 29200 ft 474 kts 118°
2026-04-24 13:24 41.56270 120.37022 29200 ft 474 kts 116°
2026-04-24 13:24 41.54146 120.45289 29200 ft 474 kts 99°
2026-04-24 13:25 41.53841 120.54070 29201 ft 474 kts 87°
2026-04-24 13:25 41.54346 120.62774 29200 ft 474 kts 84°
2026-04-24 13:26 41.54980 120.71533 29200 ft 474 kts 85°
2026-04-24 13:26 41.55550 120.80280 29200 ft 474 kts 85°
2026-04-24 13:27 41.56051 120.89070 29200 ft 474 kts 86°
2026-04-24 13:27 41.56507 120.97813 29200 ft 474 kts 86°
2026-04-24 13:28 41.56942 121.06564 29200 ft 474 kts 86°
2026-04-24 13:28 41.57367 121.15346 29200 ft 474 kts 86°
2026-04-24 13:29 41.57859 121.24141 29200 ft 474 kts 84°
2026-04-24 13:29 41.58544 121.32899 29200 ft 474 kts 83°
2026-04-24 13:30 41.59269 121.41631 29200 ft 474 kts 83°
2026-04-24 13:30 41.59974 121.50349 29200 ft 474 kts 83°
2026-04-24 13:31 41.60656 121.59071 29200 ft 474 kts 84°
2026-04-24 13:31 41.61323 121.67837 29200 ft 474 kts 84°
2026-04-24 13:32 41.61981 121.76636 29200 ft 474 kts 84°
2026-04-24 13:32 41.62625 121.85368 29200 ft 474 kts 84°
2026-04-24 13:33 41.62928 121.89562 29199 ft 460 kts 85°
2026-04-24 13:33 41.63229 121.93767 29203 ft 442 kts 85°
2026-04-24 13:33 41.63357 121.95544 29870 ft 441 kts 83°
2026-04-24 13:33 41.63682 121.99705 29445 ft 456 kts 83°
2026-04-24 13:34 41.64009 122.04012 29133 ft 477 kts 83°
2026-04-24 13:34 41.64239 122.08495 29068 ft 492 kts 87°
2026-04-24 13:34 41.64213 122.13131 29049 ft 505 kts 92°
2026-04-24 13:34 41.63936 122.17794 29035 ft 512 kts 96°
2026-04-24 13:35 41.62940 122.27302 29037 ft 504 kts 99°
2026-04-24 13:35 41.61805 122.36489 29070 ft 505 kts 99°
2026-04-24 13:36 41.60663 122.45802 29072 ft 505 kts 99°
2026-04-24 13:36 41.59555 122.55003 29075 ft 506 kts 98°
2026-04-24 13:37 41.58460 122.64271 29085 ft 505 kts 98°
2026-04-24 13:37 41.57358 122.73564 29076 ft 505 kts 99°
2026-04-24 13:38 41.56257 122.82768 29092 ft 505 kts 99°
2026-04-24 13:38 41.55157 122.92072 29089 ft 504 kts 99°
2026-04-24 13:39 41.54060 123.01292 29103 ft 504 kts 99°
2026-04-24 13:39 41.52960 123.10510 29101 ft 504 kts 99°
2026-04-24 13:40 41.51827 123.19772 29105 ft 506 kts 99°
2026-04-24 13:40 41.50700 123.28966 29111 ft 504 kts 99°
2026-04-24 13:41 41.49596 123.38262 29111 ft 505 kts 98°
2026-04-24 13:41 41.48587 123.47452 29119 ft 504 kts 98°
2026-04-24 13:42 41.47576 123.56729 29115 ft 505 kts 97°
2026-04-24 13:42 41.46545 123.66007 29122 ft 505 kts 98°
2026-04-24 13:43 41.45485 123.75251 29123 ft 504 kts 98°
2026-04-24 13:43 41.44413 123.84467 29144 ft 505 kts 99°
2026-04-24 13:44 41.43317 123.93675 29142 ft 503 kts 100°
2026-04-24 13:44 41.41362 124.02605 29151 ft 504 kts 115°
2026-04-24 13:45 41.37582 124.10418 29153 ft 498 kts 134°
2026-04-24 13:45 41.33728 124.15012 29130 ft 492 kts 148°
2026-04-24 13:46 41.27719 124.18978 29124 ft 481 kts 167°
2026-04-24 13:46 41.21193 124.20285 29123 ft 470 kts 184°
2026-04-24 13:47 41.14616 124.19998 29149 ft 470 kts 187°
2026-04-24 13:47 41.08105 124.19755 29169 ft 472 kts 185°
2026-04-24 13:48 41.01494 124.19913 29150 ft 473 kts 181°
2026-04-24 13:48 40.94905 124.20477 29149 ft 475 kts 179°
2026-04-24 13:49 40.88318 124.21201 29143 ft 476 kts 179°
2026-04-24 13:49 40.81695 124.21967 29137 ft 477 kts 179°
2026-04-24 13:50 40.75089 124.22729 29001 ft 477 kts 178°
2026-04-24 13:50 40.71802 124.23107 28742 ft 470 kts 178°
2026-04-24 13:50 40.68541 124.23484 28309 ft 465 kts 178°
2026-04-24 13:51 40.65344 124.23852 27776 ft 459 kts 178°
2026-04-24 13:51 40.62161 124.24219 27250 ft 453 kts 178°
2026-04-24 13:51 40.59045 124.24574 26720 ft 448 kts 178°
2026-04-24 13:51 40.55967 124.24925 26212 ft 441 kts 178°
2026-04-24 13:52 40.52920 124.25269 25710 ft 438 kts 178°
2026-04-24 13:52 40.49877 124.25610 25210 ft 438 kts 178°
2026-04-24 13:52 40.46827 124.25951 24696 ft 437 kts 178°
2026-04-24 13:52 40.43834 124.26285 24195 ft 435 kts 178°
2026-04-24 13:53 40.40814 124.26624 23684 ft 431 kts 178°
2026-04-24 13:53 40.37847 124.26966 23206 ft 427 kts 177°
2026-04-24 13:53 40.34910 124.27476 22743 ft 424 kts 172°
2026-04-24 13:53 40.32044 124.28408 22279 ft 424 kts 164°
2026-04-24 13:54 40.29297 124.29878 21813 ft 424 kts 155°
2026-04-24 13:54 40.26728 124.31781 21347 ft 423 kts 149°
2026-04-24 13:54 40.24337 124.33958 20878 ft 421 kts 144°
2026-04-24 13:54 40.22097 124.36491 20416 ft 418 kts 136°
2026-04-24 13:55 40.20198 124.39326 19962 ft 415 kts 128°
2026-04-24 13:55 40.18605 124.42479 19510 ft 413 kts 120°
2026-04-24 13:55 40.17203 124.45700 19053 ft 409 kts 119°
2026-04-24 13:55 40.15867 124.48965 18651 ft 404 kts 114°
2026-04-24 13:56 40.14899 124.52413 18386 ft 400 kts 103°
2026-04-24 13:56 40.14363 124.55959 18154 ft 400 kts 98°
2026-04-24 13:56 40.13909 124.59562 17890 ft 400 kts 99°
2026-04-24 13:56 40.13299 124.63103 17621 ft 399 kts 105°
2026-04-24 13:57 40.12397 124.66491 17372 ft 399 kts 113°
2026-04-24 13:57 40.11169 124.69813 17129 ft 416 kts 118°
2026-04-24 13:57 40.09696 124.73142 16884 ft 429 kts 122°
2026-04-24 13:57 40.08084 124.76455 16627 ft 431 kts 123°
2026-04-24 13:58 40.06431 124.79697 16375 ft 428 kts 124°
2026-04-24 13:58 40.04749 124.82941 16130 ft 425 kts 124°
2026-04-24 13:58 40.03112 124.86090 15882 ft 423 kts 124°
2026-04-24 13:58 40.01469 124.89265 15624 ft 421 kts 124°
2026-04-24 13:59 39.99834 124.92442 15354 ft 420 kts 123°
2026-04-24 13:59 39.98204 124.95626 15105 ft 417 kts 123°
2026-04-24 13:59 39.96605 124.98758 14842 ft 415 kts 123°
2026-04-24 13:59 39.95018 125.01872 14604 ft 414 kts 123°
2026-04-24 14:00 39.93409 125.05029 14348 ft 413 kts 123°
2026-04-24 14:00 39.91838 125.08110 14075 ft 411 kts 123°
2026-04-24 14:00 39.90242 125.11238 13850 ft 411 kts 123°
2026-04-24 14:00 39.88662 125.14330 13499 ft 411 kts 123°
2026-04-24 14:01 39.87090 125.17403 13170 ft 408 kts 123°
2026-04-24 14:01 39.85505 125.20501 12870 ft 406 kts 123°
2026-04-24 14:01 39.83953 125.23528 12549 ft 405 kts 123°
2026-04-24 14:01 39.82383 125.26587 12241 ft 403 kts 123°
2026-04-24 14:02 39.80825 125.29620 11920 ft 401 kts 123°
2026-04-24 14:02 39.79263 125.32659 11628 ft 401 kts 123°
2026-04-24 14:02 39.77720 125.35658 11342 ft 400 kts 123°
2026-04-24 14:02 39.76165 125.38676 11043 ft 398 kts 123°
2026-04-24 14:03 39.74562 125.41557 10765 ft 396 kts 129°
2026-04-24 14:03 39.72581 125.44064 10448 ft 395 kts 145°
2026-04-24 14:03 39.70112 125.45531 10158 ft 391 kts 165°
2026-04-24 14:03 39.67461 125.46237 9876 ft 381 kts 172°
2026-04-24 14:04 39.64884 125.46666 9628 ft 366 kts 175°
2026-04-24 14:04 39.62393 125.47023 9400 ft 354 kts 175°
2026-04-24 14:04 39.59975 125.47395 9182 ft 346 kts 174°
2026-04-24 14:04 39.57590 125.47808 8976 ft 345 kts 173°
2026-04-24 14:05 39.55210 125.48261 8781 ft 342 kts 173°
2026-04-24 14:05 39.52891 125.48731 8559 ft 331 kts 172°
2026-04-24 14:05 39.50632 125.49203 8341 ft 321 kts 172°
2026-04-24 14:05 39.48478 125.49656 8136 ft 312 kts 172°
2026-04-24 14:06 39.46353 125.50102 7940 ft 303 kts 172°
2026-04-24 14:06 39.44294 125.50534 7691 ft 295 kts 172°
2026-04-24 14:06 39.42285 125.50955 7437 ft 287 kts 173°
2026-04-24 14:06 39.40325 125.51366 7234 ft 280 kts 173°
2026-04-24 14:07 39.38409 125.51765 6997 ft 275 kts 173°
2026-04-24 14:07 39.36554 125.52150 6783 ft 270 kts 173°
2026-04-24 14:07 39.34710 125.52533 6553 ft 264 kts 173°
2026-04-24 14:07 39.32908 125.52909 6322 ft 259 kts 173°
2026-04-24 14:08 39.31145 125.53276 6091 ft 254 kts 173°
2026-04-24 14:08 39.29426 125.53634 5876 ft 249 kts 173°
2026-04-24 14:08 39.27714 125.53990 5652 ft 245 kts 173°
2026-04-24 14:08 39.26038 125.54338 5421 ft 241 kts 173°
2026-04-24 14:09 39.24389 125.54681 5181 ft 235 kts 172°
2026-04-24 14:09 39.22815 125.55012 4967 ft 227 kts 170°
2026-04-24 14:09 39.21302 125.55487 4767 ft 216 kts 165°
2026-04-24 14:09 39.19881 125.56053 4539 ft 208 kts 163°
2026-04-24 14:10 39.18985 125.56422 4416 ft 203 kts 164°
2026-04-24 14:10 39.17184 125.57148 4105 ft 202 kts 164°
2026-04-24 14:10 39.15837 125.57678 3877 ft 201 kts 164°
2026-04-24 14:10 39.14499 125.58205 3652 ft 200 kts 164°
2026-04-24 14:11 39.13157 125.58732 3426 ft 199 kts 164°
2026-04-24 14:11 39.11843 125.59251 3201 ft 198 kts 164°
2026-04-24 14:11 39.09227 125.60282 2759 ft 195 kts 163°
2026-04-24 14:12 39.07931 125.60844 2526 ft 193 kts 156°
2026-04-24 14:12 39.06892 125.61887 2290 ft 190 kts 122°
2026-04-24 14:12 39.06528 125.63483 2092 ft 187 kts 92°
2026-04-24 14:12 39.06686 125.65125 2060 ft 184 kts 75°
2026-04-24 14:13 39.07080 125.66705 2063 ft 188 kts 73°
2026-04-24 14:13 39.07484 125.68300 2060 ft 188 kts 73°
2026-04-24 14:13 39.07995 125.69847 2057 ft 188 kts 55°
2026-04-24 14:13 39.09024 125.70869 2067 ft 190 kts 17°
2026-04-24 14:14 39.10342 125.71001 1924 ft 189 kts 349°
2026-04-24 14:14 39.11596 125.70563 1656 ft 187 kts 340°
2026-04-24 14:14 39.13974 125.69609 1187 ft 167 kts 343°
2026-04-24 14:15 39.15071 125.69176 931 ft 161 kts 342°
2026-04-24 14:15 39.16074 125.68776 769 ft 145 kts 343°
2026-04-24 14:15 39.17042 125.68410 504 ft 142 kts 344°
2026-04-24 14:15 39.17984 125.68059 339 ft 141 kts 343°
2026-04-24 14:16 39.18946 125.67677 178 ft 145 kts 343°
2026-04-24 14:16 39.19906 125.67296 105 ft 141 kts 345°
2026-04-24 14:16 39.20686 125.67004 99 ft 71 kts 342°
2026-04-24 14:17 39.21419 125.66803 101 ft 42 kts
2026-04-24 14:17 39.21388 125.66960 99 ft 28 kts 163°
2026-04-24 14:17 39.20896 125.67155 97 ft 47 kts 164°
2026-04-24 14:18 39.20553 125.67288 96 ft 50 kts 163°
2026-04-24 14:18 39.20232 125.67416 96 ft 42 kts 163°
2026-04-24 14:18 39.20067 125.67473 93 ft 11 kts 163°
2026-04-24 14:18 39.20036 125.67536 93 ft 8 kts 78°
2026-04-24 14:19 39.20043 125.67568 94 ft 3 kts 73°
2026-04-24 14:19 39.20045 125.67577 94 ft 0 kts 72°